Regional Weather Roundup
Issued by NWS

Home | Current Version | Previous Version | Text Only | Print | Product List | Glossary On
Versions: 1 2 3 4 5 6 7 8 9 10 11 12 13 14 15 16 17 18 19 20 21 22 23 24 25 26 27 28 29 30 31 32 33 34 35 36 37 38 39 40 41 42 43 44 45 46 47 48 49 50
000
ASUS43 KFSD 260510
RWRSD

WEATHER ROUNDUP FOR SOUTH DAKOTA
NATIONAL WEATHER SERVICE SIOUX FALLS SD
1100 PM CST SAT FEB 25 2017

NOTE: "FAIR" INDICATES FEW OR NO CLOUDS BELOW 12,000 FEET WITH NO
SIGNIFICANT WEATHER AND/OR OBSTRUCTIONS TO VISIBILITY.


SDZ001>005-009-010-012>017-260600-
NORTHWEST AND NORTH CENTRAL SOUTH DAKOTA

CITY           SKY/WX    TMP DP  RH WIND       PRES   REMARKS
BUFFALO          N/A     19  15  84 W8        29.60S WCI   9
FAITH            N/A     23  20  88 W15       29.69S WCI  10
MOBRIDGE       MOCLDY    26  21  81 S6        29.67F WCI  19
$$

SDZ012>016-024>037-041>051-057-063-072>074-260600-
SOUTHWEST AND SOUTH CENTRAL SOUTH DAKOTA

CITY           SKY/WX    TMP DP  RH WIND       PRES   REMARKS
RAPID CTY ARPT CLEAR     20  17  88 NW9       29.72S WCI   9
PIERRE         CLOUDY    26  22  84 SW5       29.73F WCI  20
CUSTER         CLEAR     10   4  76 CALM      29.63R
ELLSWORTH AFB  PTCLDY    19  19 100 W7        29.71S WCI  10
PHILIP         PTCLDY    20  16  84 W7        29.74S WCI  11
PINE RIDGE     CLEAR     16   7  67 SW9       29.75R WCI   4
SPEARFISH      FAIR      23  12  63 W10       29.68S WCI  12
WINNER         FAIR      25  17  72 S9        29.76S WCI  15
$$

SDZ004>011-016>023-039-040-260600-
NORTHEAST SOUTH DAKOTA

CITY           SKY/WX    TMP DP  RH WIND       PRES   REMARKS
ABERDEEN       PTCLDY    19  16  88 S5        29.73F WCI  12
WATERTOWN      CLOUDY    26  22  84 SW13      29.71S WCI  15
BROOKINGS      MOCLDY    25  20  81 SW13      29.74F WCI  14
SISSETON         N/A     25  24  96 CALM      29.72S
$$

SDZ017-020-022-023-036>040-048>070-260600-
SOUTHEAST SOUTH DAKOTA

CITY           SKY/WX    TMP DP  RH WIND       PRES   REMARKS
SIOUX FALLS    MOCLDY    24  19  81 SW6       29.79F WCI  17
HURON          CLEAR     23  22  96 W5        29.76F WCI  17
CHAMBERLAIN    CLOUDY    28  25  87 CALM      29.76S
MITCHELL       PTCLDY    28  21  75 SW8       29.78F WCI  20
YANKTON        CLEAR     27  16  63 SW5       29.81F WCI  21
$$

ABBREVIATIONS USED IN REMARKS
   TC - TEMPERATURE IN CELSIUS
  WCI - WIND CHILL INDEX
   HX - HEAT INDEX
  VSB - VISIBILITY





USA.gov is the U.S. government's official web portal to all federal, state and local government web resources and services.